Location: *
(48.9509°N, 19.2651°E)
Time: 14:54:34
(UTC+00:00)

Daily predictions for brighter satellites

Satellite Brightness Start Highest point End
(mag) Time Altitude Azimuth Time Altitude Azimuth Time Altitude Azimuth
Cosmos 2278 4.3 16:51:19 10° SW 16:56:58 62° WNW 17:02:38 10° NNE
MOS 1 Rocket 3.6 16:54:46 10° NNE 16:59:49 89° WNW 17:05:07 10° SSW
H-2A R/B 2.8 16:55:50 10° N 16:59:52 56° WNW 17:03:52 10° SSW
SKYMED 2 3.6 16:56:28 10° NNE 17:00:51 83° ESE 17:05:11 10° SSW
Cosmos 2360 Rocket 3.2 16:57:54 10° SSE 17:02:26 25° ESE 17:06:59 10° NE
Cosmos 2278 Rocket 4.1 16:59:43 10° N 17:02:37 14° NNE 17:05:31 10° ENE
PSLV R/B 4.5 16:58:52 10° NNE 17:02:41 36° E 17:06:26 10° SSE
HJ-1C 4.1 17:00:43 10° SE 17:03:43 32° ENE 17:06:43 10° N
Cosmos 1805 Rocket 4.2 16:59:59 10° SSW 17:04:19 62° WNW 17:08:44 10° N
Cosmos 1470 Rocket 4.3 17:01:00 10° SSE 17:04:59 33° E 17:08:58 10° NNE
Meteor 1-19 Rocket 4.4 16:59:56 10° N 17:05:51 57° ENE 17:11:32 10° SSE
CZ-4B R/B 1.2 17:06:58 10° NNE 17:10:02 84° WNW 17:13:05 10° SSW
Cosmos 1602 3.9 17:06:45 10° S 17:10:32 52° E 17:14:22 10° NNE
Meteor 2-4 Rocket 4.3 17:05:08 10° N 17:10:35 39° ENE 17:16:06 10° SE
Cosmos 2333 Rocket 3.7 17:10:00 10° SE 17:12:41 14° E 17:15:24 10° ENE
Okean O Rocket 4.0 17:10:16 10° SSW 17:14:01 28° W 17:17:49 10° NW
Cosmos 1500 3.9 17:14:43 10° SSE 17:17:58 29° E 17:21:15 10° NNE
Cosmos 1980 Rocket 3.5 17:12:48 10° SW 17:18:12 43° NW 17:23:39 10° NNE
SL-08 RB Rocket 4.0 17:15:27 10° SE 17:19:44 44° ENE 17:24:05 10° N
SJ-11-01 4.3 17:19:41 10° SSE 17:24:22 85° ENE 17:29:06 10° NNW
Cosmos 1689 Rocket 2.2 17:21:52 10° NNE 17:24:40 45° E 17:27:26 10° S
Cosmos 1933 Rocket 4.1 17:21:56 10° SSE 17:25:53 35° E 17:29:53 10° NNE
ERBS 2.8 17:22:53 10° WSW 17:26:09 56° NNW 17:29:25 10° NE
Cosmos 1666 Rocket 3.8 17:23:01 10° SSW 17:27:20 74° W 17:31:41 10° N
Cosmos 1862 Rocket 3.6 17:23:39 10° N 17:28:10 90° E 17:32:39 10° S
CZ-2C R/B 4.4 17:23:21 10° S 17:28:52 48° W 17:34:11 10° NNW
BREEZE-M DEB (TANK) 3.5 17:24:23 10° SW 17:29:04 26° SSE 17:30:49 16° ESE
Cosmos 2322 Rocket 2.1 17:26:26 10° SSW 17:31:59 70° ESE 17:37:36 10° NNE
Aureole 2 Rocket 1.4 17:30:10 10° NNW 17:32:44 80° ENE 17:35:12 10° SSE
Cosmos 2242 Rocket 3.9 17:29:25 10° N 17:33:45 44° ENE 17:38:02 10° SSE
Nadezhda 3 Rocket 4.0 17:28:59 10° N 17:35:24 85° E 17:41:47 10° S
Resurs 01 Rocket 3.5 17:35:07 12° ENE 17:35:35 12° NE 17:37:23 10° NNE
Cosmos 1461 3.9 17:32:54 10° SW 17:37:34 56° NW 17:42:15 10° NNE
ATLAS 5 CENTAUR R/B 4.0 17:25:32 10° WSW 17:38:11 50° NW 17:41:55 10° NE
Meteor 1-25 Rocket 4.5 17:33:08 10° SSW 17:38:53 76° WNW 17:44:36 10° N
Lacrosse 4 Rocket 3.6 17:37:42 10° SE 17:38:01 11° SE 17:38:01 11° SE
COSMOS 2428 4.0 17:38:56 10° SE 17:42:30 18° E 17:42:30 18° E
Cosmos 2074 Rocket 4.5 17:36:45 10° SSW 17:42:58 67° WNW 17:49:13 10° N
Cosmos 2154 Rocket 4.0 17:36:55 10° S 17:43:08 85° E 17:49:22 10° N
YAOGAN 1 3.3 17:39:33 10° S 17:43:48 57° W 17:48:06 10° NNW
Helios 1A Rocket 2.8 17:39:52 10° SSE 17:43:55 89° E 17:48:00 10° NNW
Cosmos 1295 Rocket 4.4 17:38:01 10° S 17:44:14 74° E 17:50:25 10° NNE
Abrixas rocket 1.4 17:42:38 10° W 17:45:07 77° S 17:45:57 37° E
Meteor 1-14 Rocket 4.1 17:41:05 10° S 17:46:35 68° E 17:52:06 10° NNE
Cosmos 1610 Rocket 4.5 17:40:39 10° S 17:46:51 89° E 17:53:11 10° N
FALCON 9 DEB 3.9 17:43:58 10° WNW 17:46:59 37° N 17:48:34 22° ENE
ASTEX 1 4.3 17:43:22 10° NNE 17:47:26 26° E 17:50:35 14° SE
COSMO-SKYMED 1 4.4 17:44:52 10° N 17:48:48 34° WNW 17:52:44 10° SW
SJ-6B 3.5 17:46:54 18° SE 17:49:26 35° ENE 17:53:09 10° N
Meteor 1-11 Rocket 4.5 17:44:49 10° SSE 17:49:39 29° E 17:54:25 10° NNE
Cosmos 2219 Rocket 3.2 17:45:22 10° SSE 17:49:40 23° ESE 17:53:41 11° NE
GP-B 3.1 17:47:04 10° SSE 17:51:25 63° E 17:55:49 10° N
MetOp-A 4.2 17:47:36 10° SE 17:52:48 55° ENE 17:58:02 10° N
Cosmos 1992 Rocket 4.0 17:50:34 10° SSW 17:55:48 89° WNW 18:01:05 10° NNE
SL-16 R/B 2.6 17:50:58 10° SW 17:56:37 66° WNW 18:02:17 10° NNE
ARGOS 3.6 17:51:29 10° S 17:56:53 67° WSW 18:02:19 10° NNW
USA 234 3.6 17:52:33 15° ENE 17:57:46 43° SE 18:03:55 10° SSW
FALCON 9 DEB 3.8 17:56:30 10° WNW 17:59:31 38° N 18:00:32 29° NE
Meteor 1-13 Rocket 4.5 17:54:37 10° N 18:00:26 52° ENE 18:05:58 11° SSE
SeaSat 1 2.3 17:56:31 10° NNE 18:01:29 73° ESE 18:06:24 10° SSW
Resurs 1-3 4.4 18:01:24 28° E 18:02:15 30° ENE 18:06:04 10° N
SJ 16-02 2.7 17:58:53 10° N 18:02:19 22° NE 18:02:34 22° ENE
OBJECT-B 1.5 18:03:20 34° ENE 18:03:20 34° ENE 18:06:08 10° N
Okean 1-7 2.9 17:59:14 10° N 18:03:37 72° ENE 18:07:57 10° SSE
CZ-2C R/B 2.6 18:01:36 10° NNE 18:07:09 87° ESE 18:12:31 10° SSW
IRS-1A Rocket 4.4 18:03:52 16° SE 18:08:14 53° ENE 18:13:37 10° N
H-2A R/B 3.6 18:03:21 10° SSW 18:08:25 39° W 18:13:31 10° NNW
CZ-4 R/B 3.7 18:05:13 10° SSW 18:08:26 25° W 18:11:44 10° NW
Cosmos 2322 4.0 18:03:52 10° S 18:09:11 41° ESE 18:14:31 10° NE
SAR-Lupe-4 4.4 18:06:12 10° N 18:09:42 52° WNW 18:13:11 10° SSW
USA 305 3.7 18:09:01 10° WNW 18:13:05 41° N 18:14:50 27° NE
DMSP B5D2-2 4.0 18:08:20 10° NNE 18:13:34 67° ESE 18:18:44 10° S
SL-8 Rocket 3.9 18:08:56 10° S 18:15:04 63° E 18:21:12 10° NNE
Gbstr 26 Del rocket 3.6 18:11:16 10° W 18:15:49 63° N 18:18:27 30° ENE
Cosmos 2237 4.3 18:10:07 10° SSW 18:15:52 83° WNW 18:21:39 10° NNE
Cosmos 962 Rocket 4.5 18:10:55 10° S 18:17:09 89° WNW 18:23:29 10° N
SL-4 R/B 1.4 18:14:39 10° WNW 18:18:11 79° NNE 18:18:38 64° E
Cosmos 1869 Rocket 3.6 18:15:51 10° S 18:20:05 54° E 18:24:24 10° NNE
USA 186 2.7 18:25:07 31° NNW 18:25:07 31° NNW 18:26:38 10° NNW
USA 307 3.7 18:20:20 10° WNW 18:24:25 41° N 18:25:41 32° NE
ATLAS CENTAUR R/B 1.0 18:22:04 10° SW 18:25:41 79° NW 18:26:57 39° NNE
FALCON 9 DEB 3.9 18:22:26 10° WNW 18:25:42 43° SW 18:26:13 39° S
Cosmos 1339 Rocket 4.4 18:20:07 10° N 18:26:21 89° E 18:32:38 10° S
ERS-2 4.0 18:23:34 10° N 18:26:53 32° WNW 18:30:10 10° SW
USA 306 3.7 18:23:46 10° WNW 18:27:51 42° N 18:28:56 34° NE
Cosmos 2366 rocket 3.9 18:23:49 10° S 18:30:03 67° E 18:36:22 10° NNE
FALCON 9 DEB 3.7 18:27:01 10° WNW 18:29:48 43° N 18:29:48 43° N
Cosmos 1378 3.8 18:26:28 10° N 18:29:15 40° NNE 18:29:15 40° NNE
Cosmos 1844 Rocket 3.3 18:25:08 10° NW 18:30:33 53° WSW 18:35:56 10° S
FALCON 9 DEB 3.8 18:28:57 10° WNW 18:31:44 42° N 18:31:44 42° N
Cosmos 1666 2.7 18:30:50 10° SSW 18:34:32 74° W 18:38:17 10° N
USA 308 3.6 18:30:58 10° WNW 18:35:04 42° N 18:35:51 38° NE
Cosmos 1777 Rocket 3.9 18:30:10 10° NNW 18:35:27 87° WSW 18:37:59 32° SSE
SPOT 3 Rocket 3.8 18:37:59 46° E 18:38:22 47° ENE 18:43:22 10° N
Cosmos 2341 Rocket 4.2 18:32:16 10° SSW 18:38:34 73° W 18:44:52 10° N
Meteor 1-5 Rocket 4.3 18:33:37 10° SSW 18:38:58 71° WNW 18:44:30 10° N
Cosmos 2333 4.1 18:34:05 10° SSW 18:39:43 75° ESE 18:45:26 10° NNE
Okean 3 3.3 18:37:54 10° N 18:42:10 90° WSW 18:42:57 60° S
Cosmos 1844 4.4 18:36:45 10° NW 18:42:22 53° WSW 18:46:58 15° S
Ariane Rocket 3.0 18:42:04 30° SSE 18:44:42 85° WSW 18:49:50 10° NNW
Cosmos 2360 Rocket 2.7 18:40:25 10° SW 18:46:01 60° WNW 18:51:39 10° NNE
Cosmos 2221 Rocket 4.0 18:42:07 10° N 18:45:39 47° NE 18:45:39 47° NE
Cosmos 2278 Rocket 2.4 18:42:41 10° NNW 18:48:12 48° NE 18:48:36 47° ENE
Cosmos 1727 Rocket 3.8 18:44:10 10° N 18:50:23 76° E 18:52:57 38° SSE
Meteor 2-20 4.3 18:46:11 10° N 18:52:19 71° ENE 18:54:04 48° SE
Cosmos 2333 Rocket 2.0 18:50:19 10° SSW 18:55:59 80° ESE 19:01:45 10° NNE
Cosmos 1821 Rocket 4.4 18:57:21 43° ENE 18:57:21 43° ENE 19:02:06 10° NNE
Cosmos 2218 Rocket 4.1 18:50:43 10° SSW 18:57:08 80° W 19:03:34 10° N
Cosmos 1000 Rocket 4.5 18:57:28 10° N 19:03:42 59° ENE 19:03:53 58° E
Cosmos 1943 Rocket 3.9 19:03:19 10° N 19:06:52 19° NNE 19:06:52 19° NNE
MetOp-B 4.4 19:08:50 53° NE 19:08:50 53° NE 19:13:22 10° N
Resurs 01 Rocket 2.4 19:12:41 45° N 19:12:41 45° N 19:15:48 10° NNW
Cosmos 2322 Rocket 4.2 19:11:55 10° W 19:16:34 26° NW 19:21:17 10° NNE
Lacrosse 4 Rocket 3.8 19:13:34 10° SW 19:14:29 16° SW 19:14:29 16° SW
COSMOS 2428 3.0 19:20:23 10° SSW 19:32:11 - NNE 19:24:51 57° SW
ASTEX 1 4.4 19:21:59 10° N 19:26:36 43° WNW 19:30:11 16° SW
Cosmos 2219 Rocket 2.5 19:27:34 10° SW 19:33:07 65° WNW 19:38:44 10° NNE
OBJECT-B 4.0 19:36:24 14° WNW 19:36:24 14° WNW 19:37:30 10° NW
Terra 4.2 19:42:56 15° N 19:42:56 15° N 19:43:52 10° N
USA 234 3.3 19:39:54 61° NE 19:41:04 76° NNW 19:47:35 10° WSW
SJ 16-02 2.9 19:36:55 10° NNW 19:39:34 33° NW 19:39:34 33° NW
USA 281 4.3 19:47:39 32° NNE 19:47:39 32° NNE 19:52:21 10° NNW
Cosmos 2369 Rocket 4.1 19:48:10 10° N 19:50:42 19° NNE 19:50:42 19° NNE
ATLAS CENTAUR R/B 4.4 20:02:55 10° WNW 20:03:11 11° WNW 20:03:11 11° WNW
Cosmos 2278 Rocket 3.9 20:27:06 10° NW 20:30:28 28° WNW 20:30:28 28° WNW
Cosmos 2333 Rocket 4.2 20:36:21 10° W 20:40:56 24° NW 20:45:35 10° NNE
Cosmos 1943 Rocket 4.2 20:46:21 10° NNW 20:48:24 23° NNW 20:48:24 23° NNW
